Language: 


Des rapports , des résumés tant et plus, au choix de chacun....


Données statistiques de la station
Quotidien Rapport Janvier 11, 2017 Unités:  Métrique    Anglais   les deux
« Précédent Jour
Suivant Jour »
Quotidien Hebdomadaire Mensuel Annuel Actuel
  Haut: Bas: Moyen:
Température: 12.7 °C 0.0 °C 8.1 °C
Pt de rosée: 11.3 °C 0.9 °C 5.3 °C
Humidité: 96 % 0 % 83 %
Vitesse du vent: 28.5 km/h 0.0 km/h 10.7 km/h
Rafales: 36.4 km/h - -
Vent:- - West
Pression: 1014.1 hPa 1006.0 hPa -
Précipitation: 0.3 mm    
Historical Graphs
 
 
Données statistiques pour Janvier 11, 2017
Heure Température Point de rosée Pression Vent Vitesse du vent Refales Humidité Pluie (taux horaire)
00:04 6.0 °C 5.4 °C 1012.1 hPa WSW 6.4 km/h 9.3 km/h 96 % 0.0 mm
00:09 6.0 °C 5.4 °C 1012.1 hPa WSW 6.4 km/h 9.3 km/h 96 % 0.0 mm
00:14 6.0 °C 5.4 °C 1012.1 hPa West 7.6 km/h 7.9 km/h 96 % 0.0 mm
00:19 6.1 °C 5.5 °C 1012.1 hPa WSW 6.4 km/h 7.9 km/h 96 % 0.0 mm
00:24 6.0 °C 5.2 °C 1013.1 hPa WSW 4.3 km/h 7.6 km/h 95 % 0.0 mm
00:29 6.0 °C 5.2 °C 1013.1 hPa SW 6.1 km/h 6.4 km/h 95 % 0.0 mm
00:34 6.0 °C 5.2 °C 1013.1 hPa SW 6.4 km/h 6.9 km/h 95 % 0.0 mm
00:39 6.0 °C 5.2 °C 1013.1 hPa WSW 5.0 km/h 8.7 km/h 95 % 0.0 mm
00:44 6.1 °C 5.3 °C 1013.1 hPa SW 6.4 km/h 9.0 km/h 95 % 0.0 mm
00:49 6.2 °C 5.6 °C 1013.1 hPa SSW 6.1 km/h 10.1 km/h 96 % 0.0 mm
00:54 6.2 °C 5.6 °C 1012.1 hPa SW 6.4 km/h 12.6 km/h 96 % 0.0 mm
00:59 6.2 °C 5.6 °C 1012.1 hPa WSW 8.7 km/h 12.6 km/h 96 % 0.0 mm
01:04 6.2 °C 5.4 °C 1012.1 hPa WSW 9.7 km/h 10.5 km/h 95 % 0.0 mm
01:09 6.3 °C 5.6 °C 1012.1 hPa SW 6.1 km/h 11.6 km/h 95 % 0.0 mm
01:14 6.3 °C 5.6 °C 1012.1 hPa SSW 10.5 km/h 11.6 km/h 95 % 0.0 mm
01:19 6.3 °C 5.6 °C 1012.1 hPa SW 7.6 km/h 11.9 km/h 95 % 0.0 mm
01:24 6.4 °C 5.6 °C 1011.1 hPa SSW 6.9 km/h 11.9 km/h 95 % 0.0 mm
01:29 6.4 °C 5.6 °C 1011.1 hPa SSW 9.3 km/h 11.9 km/h 95 % 0.0 mm
01:34 6.4 °C 5.6 °C 1011.1 hPa SW 9.7 km/h 11.9 km/h 95 % 0.0 mm
01:39 6.4 °C 5.6 °C 1011.1 hPa SW 4.7 km/h 11.9 km/h 95 % 0.0 mm
01:44 6.4 °C 5.6 °C 1011.1 hPa SSW 10.1 km/h 10.1 km/h 95 % 0.0 mm
01:49 6.4 °C 5.6 °C 1011.1 hPa SSW 6.9 km/h 10.1 km/h 95 % 0.0 mm
01:54 6.4 °C 5.6 °C 1011.1 hPa SW 9.0 km/h 10.1 km/h 95 % 0.0 mm
01:59 6.4 °C 5.6 °C 1011.1 hPa SSW 6.4 km/h 11.9 km/h 95 % 0.0 mm
02:04 6.4 °C 5.6 °C 1011.1 hPa SSW 9.3 km/h 11.9 km/h 95 % 0.0 mm
02:09 6.4 °C 5.7 °C 1011.1 hPa SSW 6.9 km/h 11.6 km/h 95 % 0.0 mm
02:14 6.4 °C 5.7 °C 1011.1 hPa WSW 5.8 km/h 13.7 km/h 95 % 0.0 mm
02:19 6.6 °C 5.8 °C 1011.1 hPa WSW 9.3 km/h 13.7 km/h 95 % 0.0 mm
02:24 6.6 °C 5.8 °C 1011.1 hPa SSW 12.2 km/h 13.0 km/h 95 % 0.0 mm
02:29 6.6 °C 5.8 °C 1011.1 hPa WSW 6.9 km/h 13.0 km/h 95 % 0.0 mm
02:34 6.6 °C 5.8 °C 1011.1 hPa WSW 10.5 km/h 12.2 km/h 95 % 0.0 mm
02:39 6.6 °C 5.8 °C 1011.1 hPa SW 6.4 km/h 12.2 km/h 95 % 0.0 mm
02:44 6.6 °C 5.8 °C 1011.1 hPa SW 9.0 km/h 12.2 km/h 95 % 0.0 mm
02:49 6.6 °C 5.8 °C 1011.1 hPa WSW 8.7 km/h 11.9 km/h 95 % 0.0 mm
02:54 6.7 °C 5.9 °C 1011.1 hPa SW 6.4 km/h 11.6 km/h 95 % 0.0 mm
02:59 6.6 °C 5.8 °C 1011.1 hPa SW 7.6 km/h 11.6 km/h 95 % 0.0 mm
03:06 0.0 °C 5.9 °C 1011.1 hPa SW 7.9 km/h 10.5 km/h 0 % 0.0 mm
03:11 6.7 °C 5.9 °C 1011.1 hPa WSW 10.1 km/h 11.9 km/h 95 % 0.0 mm
03:16 6.7 °C 5.9 °C 1011.1 hPa WSW 7.9 km/h 13.0 km/h 95 % 0.0 mm
03:21 6.7 °C 5.9 °C 1011.1 hPa SW 8.7 km/h 13.0 km/h 95 % 0.0 mm
03:26 6.7 °C 5.9 °C 1011.1 hPa WSW 8.7 km/h 12.6 km/h 95 % 0.0 mm
03:31 6.6 °C 5.8 °C 1011.1 hPa SW 7.9 km/h 11.6 km/h 95 % 0.0 mm
03:36 6.6 °C 5.8 °C 1011.1 hPa SSW 10.8 km/h 12.2 km/h 95 % 0.0 mm
03:41 6.6 °C 5.8 °C 1011.1 hPa SSW 11.9 km/h 12.6 km/h 95 % 0.0 mm
03:46 6.6 °C 6.0 °C 1011.1 hPa SW 10.5 km/h 16.6 km/h 96 % 0.0 mm
03:51 6.6 °C 6.0 °C 1011.1 hPa SSW 9.3 km/h 16.6 km/h 96 % 0.0 mm
03:56 6.4 °C 5.9 °C 1010.0 hPa SW 13.7 km/h 16.3 km/h 96 % 0.0 mm
04:01 6.4 °C 5.9 °C 1010.0 hPa SW 9.3 km/h 13.7 km/h 96 % 0.0 mm
04:06 6.4 °C 5.8 °C 1010.0 hPa SW 10.5 km/h 14.8 km/h 96 % 0.0 mm
04:11 6.4 °C 5.9 °C 1010.0 hPa SW 6.9 km/h 14.8 km/h 96 % 0.0 mm
04:16 6.4 °C 5.9 °C 1010.0 hPa WSW 10.5 km/h 13.0 km/h 96 % 0.0 mm
04:21 6.6 °C 6.0 °C 1010.0 hPa SW 9.0 km/h 13.0 km/h 96 % 0.0 mm
04:26 6.6 °C 6.0 °C 1010.0 hPa SW 13.0 km/h 16.9 km/h 96 % 0.0 mm
04:31 6.4 °C 5.9 °C 1010.0 hPa WSW 9.3 km/h 16.9 km/h 96 % 0.0 mm
04:36 6.4 °C 5.9 °C 1010.0 hPa SW 10.5 km/h 16.9 km/h 96 % 0.0 mm
04:41 6.4 °C 5.9 °C 1010.0 hPa SSW 7.9 km/h 15.4 km/h 96 % 0.0 mm
04:46 6.4 °C 5.8 °C 1010.0 hPa SSW 10.5 km/h 13.7 km/h 96 % 0.0 mm
04:51 6.4 °C 5.8 °C 1010.0 hPa WSW 7.9 km/h 13.7 km/h 96 % 0.0 mm
04:56 6.4 °C 5.8 °C 1009.0 hPa WSW 9.0 km/h 16.3 km/h 96 % 0.0 mm
05:01 6.3 °C 5.7 °C 1009.0 hPa SSW 8.7 km/h 16.3 km/h 96 % 0.0 mm
05:06 6.3 °C 5.7 °C 1009.0 hPa WSW 12.2 km/h 14.0 km/h 96 % 0.0 mm
05:11 6.3 °C 5.7 °C 1009.0 hPa SSW 10.1 km/h 14.0 km/h 96 % 0.0 mm
05:16 6.4 °C 5.8 °C 1009.0 hPa SW 12.2 km/h 16.3 km/h 96 % 0.0 mm
05:21 6.4 °C 5.8 °C 1009.0 hPa SSW 9.0 km/h 16.3 km/h 96 % 0.0 mm
05:26 6.4 °C 5.8 °C 1009.0 hPa SSW 10.1 km/h 13.0 km/h 96 % 0.0 mm
05:31 6.4 °C 5.8 °C 1009.0 hPa SSW 9.0 km/h 13.0 km/h 96 % 0.0 mm
05:36 6.4 °C 5.8 °C 1009.0 hPa SSW 9.3 km/h 12.6 km/h 96 % 0.0 mm
05:41 6.4 °C 5.9 °C 1008.0 hPa SW 8.7 km/h 14.0 km/h 96 % 0.0 mm
05:46 6.4 °C 5.9 °C 1008.0 hPa South 6.4 km/h 14.0 km/h 96 % 0.0 mm
05:51 6.4 °C 5.9 °C 1008.0 hPa SW 14.0 km/h 16.3 km/h 96 % 0.0 mm
05:56 6.4 °C 5.9 °C 1009.0 hPa SSW 11.9 km/h 16.3 km/h 96 % 0.0 mm
06:01 6.6 °C 6.0 °C 1009.0 hPa SW 9.0 km/h 14.3 km/h 96 % 0.0 mm
06:06 6.6 °C 6.0 °C 1009.0 hPa WSW 10.1 km/h 16.9 km/h 96 % 0.0 mm
06:11 6.6 °C 6.0 °C 1009.0 hPa SW 11.9 km/h 16.9 km/h 96 % 0.0 mm
06:16 6.7 °C 6.1 °C 1009.0 hPa WSW 9.7 km/h 20.1 km/h 96 % 0.0 mm
06:21 6.7 °C 6.1 °C 1009.0 hPa SW 11.1 km/h 20.1 km/h 96 % 0.0 mm
06:26 6.7 °C 6.1 °C 1009.0 hPa SW 9.3 km/h 17.7 km/h 96 % 0.0 mm
06:31 6.8 °C 6.2 °C 1009.0 hPa SW 15.4 km/h 19.1 km/h 96 % 0.0 mm
06:36 6.8 °C 6.0 °C 1009.0 hPa SSW 14.8 km/h 20.6 km/h 95 % 0.0 mm
06:41 6.8 °C 6.1 °C 1007.0 hPa SSW 15.8 km/h 20.6 km/h 95 % 0.0 mm
06:46 6.8 °C 6.1 °C 1007.0 hPa SSW 17.2 km/h 22.4 km/h 95 % 0.0 mm
06:51 6.8 °C 6.1 °C 1007.0 hPa SW 13.7 km/h 22.4 km/h 95 % 0.0 mm
06:56 6.9 °C 6.2 °C 1008.0 hPa WSW 13.7 km/h 20.1 km/h 95 % 0.0 mm
07:01 6.9 °C 6.2 °C 1008.0 hPa SSW 14.8 km/h 20.1 km/h 95 % 0.0 mm
07:06 7.1 °C 6.3 °C 1008.0 hPa SW 9.3 km/h 18.3 km/h 95 % 0.0 mm
07:11 7.1 °C 6.3 °C 1007.0 hPa SW 13.7 km/h 18.3 km/h 95 % 0.0 mm
07:16 7.2 °C 6.4 °C 1007.0 hPa SSW 11.9 km/h 23.8 km/h 95 % 0.0 mm
07:21 7.3 °C 6.5 °C 1007.0 hPa SSW 10.5 km/h 23.8 km/h 95 % 0.0 mm
07:26 7.3 °C 6.5 °C 1007.0 hPa WSW 16.3 km/h 19.8 km/h 95 % 0.0 mm
07:31 7.3 °C 6.6 °C 1007.0 hPa SSW 7.9 km/h 19.8 km/h 95 % 0.0 mm
07:36 7.4 °C 6.7 °C 1007.0 hPa WSW 9.7 km/h 19.8 km/h 95 % 0.0 mm
07:41 7.4 °C 6.7 °C 1007.0 hPa SW 14.0 km/h 16.9 km/h 95 % 0.0 mm
07:46 7.7 °C 6.9 °C 1007.0 hPa WSW 13.7 km/h 19.8 km/h 95 % 0.0 mm
07:51 7.7 °C 6.9 °C 1007.0 hPa SW 19.8 km/h 20.9 km/h 95 % 0.0 mm
07:56 7.8 °C 7.1 °C 1007.0 hPa SW 13.0 km/h 23.3 km/h 95 % 0.0 mm
08:01 7.9 °C 7.2 °C 1007.0 hPa WSW 17.7 km/h 23.3 km/h 95 % 0.0 mm
08:06 8.1 °C 7.3 °C 1007.0 hPa SW 13.7 km/h 23.8 km/h 95 % 0.0 mm
08:11 8.1 °C 7.4 °C 1007.0 hPa WSW 15.8 km/h 23.8 km/h 95 % 0.0 mm
08:16 8.1 °C 7.4 °C 1007.0 hPa SSW 16.3 km/h 20.1 km/h 95 % 0.0 mm
08:21 8.2 °C 7.5 °C 1007.0 hPa WSW 16.3 km/h 20.6 km/h 95 % 0.0 mm
08:26 8.2 °C 7.5 °C 1008.0 hPa SSW 12.2 km/h 20.6 km/h 95 % 0.0 mm
08:31 8.3 °C 7.6 °C 1008.0 hPa WSW 14.3 km/h 19.5 km/h 95 % 0.0 mm
08:36 8.3 °C 7.6 °C 1008.0 hPa WSW 16.9 km/h 20.1 km/h 95 % 0.0 mm
08:41 8.3 °C 7.4 °C 1007.0 hPa WSW 16.9 km/h 20.9 km/h 94 % 0.0 mm
08:46 8.4 °C 7.7 °C 1007.0 hPa WSW 16.9 km/h 20.9 km/h 95 % 0.0 mm
08:51 8.5 °C 7.8 °C 1007.0 hPa SW 17.2 km/h 24.8 km/h 95 % 0.0 mm
08:56 8.5 °C 7.8 °C 1007.0 hPa WSW 14.0 km/h 24.8 km/h 95 % 0.0 mm
09:01 8.5 °C 7.6 °C 1007.0 hPa WSW 15.8 km/h 18.0 km/h 94 % 0.0 mm
09:06 8.5 °C 7.8 °C 1007.0 hPa WSW 15.4 km/h 20.1 km/h 95 % 0.0 mm
09:11 8.6 °C 7.9 °C 1008.0 hPa WSW 13.7 km/h 24.5 km/h 95 % 0.0 mm
09:16 8.6 °C 7.9 °C 1008.0 hPa WSW 13.0 km/h 24.5 km/h 95 % 0.0 mm
09:21 8.6 °C 7.9 °C 1008.0 hPa WSW 14.0 km/h 19.1 km/h 95 % 0.0 mm
09:26 8.6 °C 7.7 °C 1007.0 hPa SW 16.9 km/h 19.8 km/h 94 % 0.0 mm
09:31 8.7 °C 7.8 °C 1007.0 hPa WSW 16.3 km/h 20.9 km/h 94 % 0.0 mm
09:33 8.7 °C 7.8 °C 1007.0 hPa WSW 20.6 km/h 21.2 km/h 94 % 0.0 mm
09:38 8.7 °C 7.8 °C 1007.0 hPa WSW 25.9 km/h 26.7 km/h 94 % 0.0 mm
09:43 8.8 °C 7.9 °C 1007.0 hPa WSW 20.9 km/h 26.7 km/h 94 % 0.0 mm
09:48 8.8 °C 7.9 °C 1007.0 hPa WSW 17.2 km/h 23.8 km/h 94 % 0.0 mm
09:54 8.9 °C 8.0 °C 1007.0 hPa WSW 13.0 km/h 23.8 km/h 94 % 0.0 mm
09:59 8.9 °C 8.0 °C 1007.0 hPa WSW 15.8 km/h 21.2 km/h 94 % 0.0 mm
10:04 9.0 °C 8.1 °C 1007.0 hPa WSW 12.2 km/h 20.1 km/h 94 % 0.0 mm
10:09 9.0 °C 8.1 °C 1007.0 hPa WSW 20.6 km/h 20.9 km/h 94 % 0.0 mm
10:14 9.0 °C 8.1 °C 1007.0 hPa WSW 13.7 km/h 21.2 km/h 94 % 0.0 mm
10:19 9.1 °C 8.2 °C 1007.0 hPa WSW 20.1 km/h 21.2 km/h 94 % 0.3 mm
10:24 9.1 °C 8.2 °C 1007.0 hPa West 16.3 km/h 20.1 km/h 94 % 0.3 mm
10:29 9.2 °C 8.3 °C 1007.0 hPa WSW 17.7 km/h 24.8 km/h 94 % 0.3 mm
10:34 9.3 °C 8.4 °C 1007.0 hPa WSW 17.7 km/h 24.8 km/h 94 % 0.3 mm
10:39 9.4 °C 8.5 °C 1007.0 hPa WSW 14.0 km/h 21.6 km/h 94 % 0.3 mm
10:44 9.5 °C 8.6 °C 1007.0 hPa WSW 14.3 km/h 17.7 km/h 94 % 0.3 mm
10:49 9.7 °C 8.8 °C 1007.0 hPa West 14.0 km/h 21.2 km/h 94 % 0.3 mm
10:54 9.9 °C 9.0 °C 1006.0 hPa WSW 15.8 km/h 21.2 km/h 94 % 0.3 mm
10:59 10.0 °C 9.1 °C 1006.0 hPa West 17.7 km/h 28.8 km/h 94 % 0.3 mm
11:04 10.0 °C 9.1 °C 1006.0 hPa West 23.3 km/h 28.8 km/h 94 % 0.3 mm
11:09 10.1 °C 9.2 °C 1007.0 hPa WSW 16.3 km/h 25.9 km/h 94 % 0.3 mm
11:14 10.4 °C 9.4 °C 1007.0 hPa WSW 21.2 km/h 25.9 km/h 94 % 0.3 mm
11:19 10.6 °C 9.7 °C 1007.0 hPa WSW 16.6 km/h 27.4 km/h 94 % 0.0 mm
11:24 10.8 °C 9.8 °C 1007.0 hPa West 20.6 km/h 27.4 km/h 94 % 0.0 mm
11:29 10.9 °C 9.9 °C 1007.0 hPa WNW 20.9 km/h 27.0 km/h 94 % 0.0 mm
11:34 11.1 °C 10.0 °C 1007.0 hPa West 28.0 km/h 36.4 km/h 93 % 0.0 mm
11:39 11.3 °C 10.2 °C 1007.0 hPa West 24.5 km/h 36.4 km/h 93 % 0.0 mm
11:44 11.3 °C 10.2 °C 1007.0 hPa West 21.2 km/h 29.1 km/h 93 % 0.0 mm
11:49 11.4 °C 10.4 °C 1007.0 hPa West 22.7 km/h 29.1 km/h 93 % 0.0 mm
11:54 11.4 °C 10.6 °C 1007.0 hPa West 17.7 km/h 28.8 km/h 94 % 0.0 mm
11:59 11.6 °C 10.6 °C 1007.0 hPa WSW 13.0 km/h 28.8 km/h 94 % 0.0 mm
12:04 11.9 °C 11.0 °C 1007.0 hPa West 19.8 km/h 28.0 km/h 94 % 0.0 mm
12:09 12.2 °C 11.3 °C 1007.0 hPa West 20.6 km/h 25.6 km/h 94 % 0.0 mm
12:14 12.2 °C 11.2 °C 1007.0 hPa West 17.7 km/h 23.8 km/h 94 % 0.0 mm
12:19 11.8 °C 10.6 °C 1007.0 hPa WSW 17.7 km/h 24.5 km/h 92 % 0.0 mm
12:24 11.8 °C 10.5 °C 1007.0 hPa West 20.1 km/h 24.5 km/h 92 % 0.0 mm
12:29 11.8 °C 10.5 °C 1007.0 hPa West 10.5 km/h 24.5 km/h 92 % 0.0 mm
12:34 11.7 °C 10.4 °C 1007.0 hPa West 13.0 km/h 27.7 km/h 92 % 0.0 mm
12:39 11.8 °C 10.3 °C 1007.0 hPa WNW 16.6 km/h 27.7 km/h 91 % 0.0 mm
12:44 12.1 °C 10.6 °C 1007.0 hPa West 23.3 km/h 26.7 km/h 91 % 0.0 mm
12:49 12.2 °C 10.7 °C 1007.0 hPa WSW 12.6 km/h 27.7 km/h 90 % 0.0 mm
12:54 12.2 °C 10.3 °C 1007.0 hPa West 6.1 km/h 27.7 km/h 88 % 0.0 mm
12:59 12.4 °C 10.5 °C 1007.0 hPa West 20.6 km/h 32.3 km/h 88 % 0.0 mm
13:04 12.4 °C 10.0 °C 1007.0 hPa West 28.5 km/h 32.3 km/h 85 % 0.0 mm
13:09 12.7 °C 10.0 °C 1007.0 hPa NW 15.4 km/h 28.5 km/h 84 % 0.0 mm
13:14 12.7 °C 9.7 °C 1007.0 hPa WNW 10.5 km/h 28.5 km/h 82 % 0.0 mm
13:19 12.2 °C 7.9 °C 1007.0 hPa North 9.7 km/h 26.7 km/h 75 % 0.0 mm
13:24 12.2 °C 8.3 °C 1007.0 hPa WNW 12.2 km/h 23.3 km/h 77 % 0.0 mm
13:29 11.9 °C 7.3 °C 1007.0 hPa WSW 16.6 km/h 19.8 km/h 73 % 0.0 mm
13:34 11.7 °C 7.0 °C 1007.0 hPa WNW 10.5 km/h 19.8 km/h 73 % 0.0 mm
13:39 11.4 °C 6.4 °C 1007.0 hPa WNW 11.9 km/h 20.6 km/h 71 % 0.0 mm
13:44 11.4 °C 6.5 °C 1007.0 hPa WNW 9.7 km/h 21.9 km/h 72 % 0.0 mm
13:49 11.2 °C 6.5 °C 1007.0 hPa NNW 10.5 km/h 21.9 km/h 73 % 0.0 mm
13:54 11.1 °C 6.2 °C 1007.0 hPa North 11.6 km/h 14.8 km/h 72 % 0.0 mm
13:59 10.9 °C 6.2 °C 1007.0 hPa North 4.7 km/h 14.8 km/h 73 % 0.0 mm
14:04 10.9 °C 6.6 °C 1007.0 hPa West 8.7 km/h 14.0 km/h 75 % 0.0 mm
14:09 10.8 °C 6.7 °C 1008.0 hPa NNW 5.5 km/h 10.5 km/h 76 % 0.0 mm
14:14 10.8 °C 6.9 °C 1008.0 hPa NW 8.7 km/h 15.4 km/h 77 % 0.0 mm
14:19 11.0 °C 7.7 °C 1008.0 hPa North 5.8 km/h 15.4 km/h 80 % 0.0 mm
14:24 11.2 °C 7.7 °C 1007.0 hPa WNW 6.1 km/h 17.7 km/h 79 % 0.0 mm
14:29 11.4 °C 7.6 °C 1007.0 hPa NNW 9.7 km/h 24.8 km/h 77 % 0.0 mm
14:34 11.6 °C 7.7 °C 1007.0 hPa WNW 9.7 km/h 24.8 km/h 77 % 0.0 mm
14:39 11.6 °C 7.5 °C 1007.0 hPa WNW 5.0 km/h 16.6 km/h 76 % 0.0 mm
14:44 11.4 °C 7.1 °C 1007.0 hPa NNW 10.1 km/h 16.6 km/h 75 % 0.0 mm
14:49 11.2 °C 6.9 °C 1007.0 hPa WNW 6.9 km/h 13.7 km/h 75 % 0.0 mm
14:54 11.0 °C 6.5 °C 1007.0 hPa West 7.9 km/h 12.6 km/h 74 % 0.0 mm
14:59 10.9 °C 6.6 °C 1007.0 hPa North 5.0 km/h 13.7 km/h 75 % 0.0 mm
15:04 10.7 °C 6.4 °C 1007.0 hPa SE 11.6 km/h 13.7 km/h 75 % 0.0 mm
15:09 10.6 °C 6.5 °C 1007.0 hPa NNW 6.9 km/h 13.7 km/h 76 % 0.0 mm
15:14 10.7 °C 6.8 °C 1007.0 hPa West 14.8 km/h 14.8 km/h 77 % 0.0 mm
15:19 10.8 °C 6.3 °C 1007.0 hPa WNW 9.3 km/h 23.8 km/h 74 % 0.0 mm
15:24 10.8 °C 5.1 °C 1008.0 hPa NNW 16.6 km/h 23.8 km/h 68 % 0.0 mm
15:29 10.6 °C 5.1 °C 1008.0 hPa NW 4.7 km/h 21.2 km/h 69 % 0.0 mm
15:34 10.5 °C 4.8 °C 1008.0 hPa WNW 10.1 km/h 21.2 km/h 68 % 0.0 mm
15:39 10.4 °C 4.7 °C 1008.0 hPa WNW 6.1 km/h 20.1 km/h 68 % 0.0 mm
15:44 10.4 °C 4.3 °C 1008.0 hPa North 12.6 km/h 20.1 km/h 66 % 0.0 mm
15:49 10.3 °C 4.4 °C 1008.0 hPa West 5.5 km/h 17.7 km/h 67 % 0.0 mm
15:51 10.4 °C 4.5 °C 1008.0 hPa North 9.3 km/h 17.7 km/h 67 % 0.0 mm
15:56 10.5 °C 4.6 °C 1009.0 hPa NNW 4.7 km/h 17.7 km/h 67 % 0.0 mm
16:01 10.3 °C 4.4 °C 1009.0 hPa NNE 9.3 km/h 17.7 km/h 67 % 0.0 mm
16:06 10.1 °C 4.2 °C 1009.0 hPa West 5.0 km/h 10.1 km/h 67 % 0.0 mm
16:11 10.2 °C 4.6 °C 1009.0 hPa NE 5.5 km/h 13.7 km/h 68 % 0.0 mm
16:16 9.9 °C 4.4 °C 1009.0 hPa WNW 16.6 km/h 28.0 km/h 69 % 0.0 mm
16:21 9.6 °C 4.4 °C 1009.0 hPa WNW 10.5 km/h 28.0 km/h 70 % 0.0 mm
16:26 9.3 °C 3.9 °C 1010.0 hPa NNW 9.0 km/h 29.1 km/h 69 % 0.0 mm
16:31 9.1 °C 3.3 °C 1010.0 hPa WNW 18.3 km/h 29.1 km/h 67 % 0.0 mm
16:36 9.1 °C 2.4 °C 1010.0 hPa NNW 12.6 km/h 28.0 km/h 63 % 0.0 mm
16:41 9.1 °C 1.7 °C 1010.0 hPa NNW 5.0 km/h 20.9 km/h 60 % 0.0 mm
16:46 9.1 °C 1.7 °C 1010.0 hPa North 9.0 km/h 20.6 km/h 60 % 0.0 mm
16:51 9.1 °C 1.7 °C 1010.0 hPa North 9.3 km/h 21.2 km/h 60 % 0.0 mm
16:56 8.9 °C 1.8 °C 1010.0 hPa North 9.7 km/h 21.2 km/h 61 % 0.0 mm
17:01 8.9 °C 2.0 °C 1010.0 hPa WNW 13.0 km/h 20.6 km/h 62 % 0.0 mm
17:06 8.9 °C 1.8 °C 1010.0 hPa NNW 6.4 km/h 20.6 km/h 61 % 0.0 mm
17:11 8.8 °C 1.9 °C 1010.0 hPa NW 11.9 km/h 20.9 km/h 62 % 0.0 mm
17:16 8.8 °C 1.9 °C 1010.0 hPa West 8.7 km/h 20.9 km/h 62 % 0.0 mm
17:21 8.7 °C 2.1 °C 1010.0 hPa NNW 12.6 km/h 17.2 km/h 63 % 0.0 mm
17:26 8.7 °C 2.3 °C 1010.0 hPa NNW 13.0 km/h 17.2 km/h 64 % 0.0 mm
17:31 8.6 °C 2.2 °C 1010.0 hPa West 7.9 km/h 14.0 km/h 64 % 0.0 mm
17:36 8.6 °C 1.9 °C 1010.0 hPa NNW 9.0 km/h 14.0 km/h 63 % 0.0 mm
17:41 8.5 °C 1.9 °C 1010.0 hPa West 10.5 km/h 14.0 km/h 63 % 0.0 mm
17:46 8.4 °C 1.6 °C 1010.0 hPa West 3.2 km/h 17.7 km/h 62 % 0.0 mm
17:51 8.4 °C 1.8 °C 1010.0 hPa NNW 5.5 km/h 17.7 km/h 63 % 0.0 mm
17:56 8.3 °C 1.4 °C 1011.1 hPa WNW 9.3 km/h 15.8 km/h 62 % 0.0 mm
18:01 8.3 °C 1.4 °C 1011.1 hPa West 10.1 km/h 14.0 km/h 62 % 0.0 mm
18:06 8.3 °C 1.4 °C 1011.1 hPa ENE 5.8 km/h 14.0 km/h 62 % 0.0 mm
18:11 8.3 °C 1.4 °C 1010.0 hPa NNW 7.6 km/h 13.0 km/h 62 % 0.0 mm
18:16 8.3 °C 1.2 °C 1010.0 hPa NW 7.6 km/h 13.0 km/h 61 % 0.0 mm
18:21 8.3 °C 1.2 °C 1010.0 hPa West 4.0 km/h 10.8 km/h 61 % 0.0 mm
18:26 8.2 °C 1.4 °C 1011.1 hPa NNW 5.5 km/h 17.2 km/h 62 % 0.0 mm
18:31 8.2 °C 1.2 °C 1011.1 hPa NW 2.6 km/h 17.2 km/h 61 % 0.0 mm
18:36 8.1 °C 1.3 °C 1011.1 hPa WNW 6.9 km/h 13.0 km/h 62 % 0.0 mm
18:41 8.1 °C 1.2 °C 1011.1 hPa NW 1.8 km/h 14.0 km/h 62 % 0.0 mm
18:46 8.1 °C 1.4 °C 1011.1 hPa WNW 4.0 km/h 14.0 km/h 63 % 0.0 mm
18:51 7.9 °C 1.6 °C 1011.1 hPa WNW 12.2 km/h 12.2 km/h 64 % 0.0 mm
18:56 7.9 °C 1.8 °C 1011.1 hPa WNW 5.0 km/h 12.2 km/h 65 % 0.0 mm
19:01 7.8 °C 1.9 °C 1011.1 hPa NNW 11.9 km/h 12.2 km/h 66 % 0.0 mm
19:06 7.7 °C 2.0 °C 1011.1 hPa NNW 3.2 km/h 12.2 km/h 67 % 0.0 mm
19:11 7.7 °C 2.2 °C 1011.1 hPa WNW 11.6 km/h 11.9 km/h 68 % 0.0 mm
19:16 7.7 °C 2.3 °C 1011.1 hPa WSW 5.8 km/h 11.6 km/h 69 % 0.0 mm
19:21 7.6 °C 2.2 °C 1011.1 hPa NNW 6.9 km/h 13.0 km/h 69 % 0.0 mm
19:26 7.3 °C 2.2 °C 1012.1 hPa West 8.7 km/h 17.2 km/h 70 % 0.0 mm
19:31 7.3 °C 2.2 °C 1012.1 hPa WNW 11.1 km/h 17.2 km/h 70 % 0.0 mm
19:36 7.3 °C 2.2 °C 1012.1 hPa NNW 5.0 km/h 16.3 km/h 70 % 0.0 mm
19:41 7.3 °C 2.2 °C 1012.1 hPa WNW 4.7 km/h 16.3 km/h 70 % 0.0 mm
19:46 7.3 °C 2.2 °C 1012.1 hPa North 4.3 km/h 12.2 km/h 70 % 0.0 mm
19:51 7.3 °C 2.2 °C 1012.1 hPa WSW 5.5 km/h 12.2 km/h 70 % 0.0 mm
19:56 7.6 °C 2.2 °C 1012.1 hPa NNW 11.6 km/h 14.0 km/h 69 % 0.0 mm
20:01 7.6 °C 2.0 °C 1012.1 hPa WNW 9.0 km/h 14.0 km/h 68 % 0.0 mm
20:06 7.4 °C 1.9 °C 1012.1 hPa North 9.7 km/h 16.9 km/h 68 % 0.0 mm
20:11 7.3 °C 1.8 °C 1013.1 hPa NNW 13.0 km/h 18.0 km/h 68 % 0.0 mm
20:16 7.3 °C 1.7 °C 1013.1 hPa NNW 11.9 km/h 18.0 km/h 68 % 0.0 mm
20:21 7.2 °C 1.4 °C 1013.1 hPa NW 6.1 km/h 12.6 km/h 67 % 0.0 mm
20:26 7.2 °C 1.4 °C 1013.1 hPa North 8.7 km/h 12.6 km/h 67 % 0.0 mm
20:31 6.9 °C 1.2 °C 1013.1 hPa North 4.7 km/h 12.6 km/h 67 % 0.0 mm
20:36 6.8 °C 0.9 °C 1013.1 hPa West 2.1 km/h 12.2 km/h 66 % 0.0 mm
20:41 6.8 °C 1.2 °C 1013.1 hPa West 1.8 km/h 10.1 km/h 67 % 0.0 mm
20:46 6.8 °C 1.2 °C 1013.1 hPa Calm   10.5 km/h 67 % 0.0 mm
20:51 6.8 °C 1.3 °C 1013.1 hPa NW 5.0 km/h 11.9 km/h 68 % 0.0 mm
20:56 6.9 °C 1.4 °C 1013.1 hPa West 6.4 km/h 11.9 km/h 68 % 0.0 mm
21:01 6.9 °C 1.4 °C 1013.1 hPa West 6.1 km/h 11.9 km/h 68 % 0.0 mm
21:06 6.9 °C 1.4 °C 1013.1 hPa WNW 7.9 km/h 13.0 km/h 68 % 0.0 mm
21:11 6.8 °C 1.6 °C 1012.1 hPa West 5.0 km/h 13.0 km/h 69 % 0.0 mm
21:16 6.6 °C 1.5 °C 1012.1 hPa West 5.8 km/h 10.1 km/h 70 % 0.0 mm
21:21 6.4 °C 1.4 °C 1012.1 hPa West 7.9 km/h 9.7 km/h 70 % 0.0 mm
21:26 6.3 °C 1.4 °C 1013.1 hPa West 8.7 km/h 9.7 km/h 71 % 0.0 mm
21:31 6.2 °C 1.5 °C 1013.1 hPa West 4.7 km/h 9.7 km/h 72 % 0.0 mm
21:36 6.0 °C 1.5 °C 1013.1 hPa Calm   7.9 km/h 73 % 0.0 mm
21:41 6.0 °C 1.5 °C 1013.1 hPa West 4.0 km/h 6.9 km/h 73 % 0.0 mm
21:46 5.9 °C 1.6 °C 1013.1 hPa WSW 5.8 km/h 9.0 km/h 74 % 0.0 mm
21:51 5.9 °C 1.6 °C 1013.1 hPa West 5.8 km/h 11.9 km/h 74 % 0.0 mm
21:56 5.8 °C 1.7 °C 1013.1 hPa West 9.7 km/h 11.9 km/h 75 % 0.0 mm
22:01 5.8 °C 1.9 °C 1013.1 hPa North 6.1 km/h 9.7 km/h 76 % 0.0 mm
22:06 5.8 °C 1.9 °C 1013.1 hPa NNW 6.1 km/h 11.9 km/h 76 % 0.0 mm
22:11 5.9 °C 1.9 °C 1013.1 hPa North 10.5 km/h 11.9 km/h 76 % 0.0 mm
22:16 6.1 °C 2.2 °C 1013.1 hPa WSW 2.1 km/h 12.6 km/h 76 % 0.0 mm
22:21 6.2 °C 2.1 °C 1013.1 hPa West 9.7 km/h 12.6 km/h 75 % 0.0 mm
22:26 6.2 °C 1.9 °C 1013.1 hPa WSW 9.3 km/h 15.8 km/h 74 % 0.0 mm
22:31 6.0 °C 1.7 °C 1013.1 hPa West 12.2 km/h 15.8 km/h 74 % 0.0 mm
22:36 5.9 °C 1.6 °C 1013.1 hPa West 12.6 km/h 14.0 km/h 74 % 0.0 mm
22:41 5.7 °C 1.4 °C 1012.1 hPa WNW 9.0 km/h 13.7 km/h 74 % 0.0 mm
22:47 5.6 °C 1.3 °C 1012.1 hPa WNW 6.1 km/h 12.6 km/h 74 % 0.0 mm
22:51 5.5 °C 1.2 °C 1013.1 hPa WSW 9.7 km/h 13.0 km/h 74 % 0.0 mm
22:56 5.5 °C 1.4 °C 1013.1 hPa West 4.0 km/h 13.0 km/h 75 % 0.0 mm
23:02 5.4 °C 1.3 °C 1013.1 hPa WNW 4.7 km/h 10.8 km/h 75 % 0.0 mm
23:07 5.3 °C 1.2 °C 1013.1 hPa West 7.6 km/h 12.6 km/h 75 % 0.0 mm
23:12 5.3 °C 1.2 °C 1013.1 hPa WSW 13.0 km/h 14.3 km/h 75 % 0.0 mm
23:17 5.4 °C 1.3 °C 1013.1 hPa WNW 6.9 km/h 14.3 km/h 75 % 0.0 mm
23:22 5.5 °C 1.2 °C 1014.1 hPa WSW 5.5 km/h 14.0 km/h 74 % 0.0 mm
23:27 5.5 °C 1.2 °C 1014.1 hPa NW 7.9 km/h 17.7 km/h 74 % 0.0 mm
23:32 5.5 °C 1.2 °C 1014.1 hPa WNW 16.3 km/h 17.7 km/h 74 % 0.0 mm
23:37 5.5 °C 1.1 °C 1013.1 hPa WNW 6.1 km/h 16.3 km/h 73 % 0.0 mm
23:42 5.6 °C 1.1 °C 1013.1 hPa West 12.6 km/h 16.3 km/h 73 % 0.0 mm
23:47 5.6 °C 1.1 °C 1013.1 hPa West 9.7 km/h 15.8 km/h 73 % 0.0 mm
23:52 5.6 °C 1.1 °C 1013.1 hPa WSW 10.5 km/h 16.3 km/h 73 % 0.0 mm
23:57 5.5 °C 1.1 °C 1013.1 hPa West 9.7 km/h 16.3 km/h 73 % 0.0 mm
Le Gheer Warneton
Courtoisie de Weather Underground - 2.25 mb

Mise a jour : 16-12-17 15:52:10
Généré par Cumulus 1.9.4 (1099)